Regional Weather Roundup
Issued by NWS Cleveland, OH

Home | Current Version | Previous Version | Graphics & Text | Print | Product List | Glossary On
Versions: 1 2 3 4 5 6 7 8 9 10 11 12 13 14 15 16 17 18 19 20 21 22 23 24 25 26 27 28 29 30 31 32 33 34 35 36 37 38 39 40 41 42 43 44 45 46 47 48 49 50
000
ASUS41 KCLE 280300
RWRCLE
OHIO REGIONAL WEATHER ROUNDUP
NATIONAL WEATHER SERVICE WILMINGTON, OH
1100 PM EDT SAT AUG 27 2016

NOTE: "FAIR" INDICATES FEW OR NO CLOUDS BELOW 12,000 FEET WITH NO
SIGNIFICANT WEATHER AND/OR OBSTRUCTIONS TO VISIBILITY.

OHZ001>008-015>018-024>027-034-035-043-044-280400-
   NORTHWEST OHIO

CITY           SKY/WX    TMP DP  RH WIND       PRES   REMARKS
DEFIANCE       FAIR      74  70  87 CALM      30.13R
FINDLAY        FAIR      73  68  84 SE10      30.13S
TOLEDO EXPRESS FAIR      71  71 100 S3        30.12S
TOLEDO EXEC    FAIR      72  71  97 S6        30.13S
LIMA           FAIR      71  71 100 S5        30.15R
$$

OHZ009>014-019>023-028>033-038-089-280400-
   NORTHEAST OHIO

CITY           SKY/WX    TMP DP  RH WIND       PRES   REMARKS
CLE-HOPKINS    FAIR      73  69  87 W6        30.15F
CLE-LAKEFRONT  FAIR      75  71  87 CALM      30.12S
CUY CO. ARPT   MOCLDY    73  73 100 CALM      30.14R
LORAIN-ELYRIA  FAIR      69  67  93 CALM      30.15R
ASHTABULA      FAIR      73  70  90 W5        30.13S
AKRON-CANTON   FAIR      70  68  93 SW6       30.16S
WOOSTER        NOT AVBL
MANSFIELD      FAIR      70  69  97 S5        30.17S
YOUNGSTOWN     CLOUDY    77  68  73 S5        30.15S
$$

OHZ042-051>053-060>062-070>072-077>081-280400-
  SOUTHWEST OHIO

CITY           SKY/WX    TMP DP  RH WIND       PRES   REMARKS
CINC-COVINGTON FAIR      77  73  87 CALM      30.15R
CINC-LUNKEN    FAIR      72  72 100 CALM      30.14R
HAMILTON       FAIR      71  70  96 CALM      30.15R
DAYTON         NOT AVBL
WRIGHT-PAT AFB FAIR      74  72  94 MISG      30.15S
DAYTON GENERAL FAIR      72  69  90 CALM      30.15R
WILMINGTON     FAIR      70  69  97 CALM      30.16R
$$

OHZ036-037-039>041-045>050-054>059-063>069-073>076-082>088-280400-
  CENTRAL AND SOUTHEAST OHIO

CITY           SKY/WX    TMP DP  RH WIND       PRES   REMARKS
COLUMBUS       MOCLDY    72  69  90 CALM      30.14S
OSU AIRPORT    FAIR      71  70  96 CALM      30.15S
BOLTON FIELD   NOT AVBL
RICKENBACK AFB NOT AVBL
NEWARK         FAIR      70  69  97 N3        30.15S
MARION         FAIR      70  68  93 S6        30.16F
LANCASTER      FAIR      71  69  93 CALM      30.15S
ZANESVILLE     FAIR      72  68  87 CALM      30.15F
NEW PHILLY     FAIR      73  69  87 CALM      30.16F
$$



USA.gov is the U.S. government's official web portal to all federal, state and local government web resources and services.